GW4477 Weather Reports


time (UTC)temp
F
wind
direction
speed
knots
gust
knots
rain 1hr
in
rain 24hr
in
rain mn
in
humidity
%
barometer
mb
20260906100032 73 188 0.0 0.9 0.00 0.00 0.00 76 1016.6
20260906094530 74 188 0.0 1.7 0.00 0.00 0.00 74 1016.7
20260906093018 75 210 0.0 1.7 0.00 0.00 0.00 73 1016.5
20260906091518 75 248 0.0 3.5 0.00 0.00 0.00 72 1016.4
20260906090030 75 232 0.9 7.0 0.00 0.00 0.00 71 1016.5
20260906084528 76 189 3.5 7.8 0.00 0.00 0.00 71 1016.4
20260906083014 75 173 3.5 7.8 0.00 0.00 0.00 71 1016.5
20260906081530 75 360 2.6 7.8 0.00 0.00 0.00 72 1016.7
20260906080039 75 155 0.9 3.5 0.00 0.00 0.00 72 1016.8
20260906074533 75 185 1.7 4.3 0.00 0.00 0.00 71 1016.7
20260906073030 75 195 1.7 4.3 0.00 0.00 0.00 71 1017.0
20260906071514 75 209 1.7 5.2 0.00 0.00 0.00 72 1017.0
20260906070026 74 360 2.6 4.3 0.00 0.00 0.00 72 1017.0
20260906064526 75 186 1.7 3.5 0.00 0.00 0.00 71 1016.8
20260906063035 75 197 0.9 3.5 0.00 0.00 0.00 71 1016.9
20260906061532 75 152 0.9 3.5 0.00 0.00 0.00 70 1017.1
20260906060015 75 194 0.9 3.5 0.00 0.00 0.00 71 1017.1
20260906054531 74 188 0.9 1.7 0.00 0.00 0.00 71 1017.0
20260906053028 74 178 0.9 2.6 0.00 0.00 0.00 70 1016.7
20260906051510 75 128 0.9 1.7 0.00 0.00 0.00 68 1016.4
20260906050014 76 178 0.0 0.0 0.00 0.00 0.00 66 1016.4
20260906044525 77 162 0.0 1.7 0.00 0.00 0.00 65 1016.0
20260906043028 78 239 1.7 4.3 0.00 0.00 0.00 63 1015.8
20260906041508 79 360 2.6 5.2 0.00 0.00 0.00 60 1015.8
20260906040020 80 167 3.5 7.0 0.00 0.00 0.00 59 1015.8
20260906034520 80 360 3.5 7.8 0.00 0.00 0.00 58 1015.8
20260906033037 80 150 3.5 8.7 0.00 0.00 0.00 58 1015.9
20260906031537 81 360 4.3 10.4 0.00 0.00 0.00 57 1015.9
20260906030012 81 141 5.2 12.2 0.00 0.00 0.00 57 1015.8
20260906024533 81 172 5.2 13.0 0.00 0.00 0.00 57 1015.8
20260906023026 81 184 6.1 11.3 0.00 0.00 0.00 57 1015.5
20260906021529 81 132 5.2 11.3 0.00 0.00 0.00 57 1015.2
20260906020032 82 121 5.2 9.6 0.00 0.00 0.00 56 1015.1
20260906014527 82 360 4.3 10.4 0.00 0.00 0.00 55 1015.0
20260906013039 83 150 6.1 10.4 0.00 0.00 0.00 53 1015.0
20260906011529 85 161 5.2 12.2 0.00 0.00 0.00 52 1014.9
20260906010032 86 176 6.1 10.4 0.00 0.00 0.00 51 1014.8
20260906004531 87 140 4.3 11.3 0.00 0.00 0.00 48 1014.7
20260906003025 90 360 2.6 5.2 0.00 0.00 0.00 40 1014.6
20260906001528 91 167 0.9 7.0 0.00 0.00 0.00 40 1014.8
20260906000030 91 169 2.6 6.1 0.00 0.00 0.00 40 1014.9
20260905234512 92 177 1.7 5.2 0.00 0.00 0.00 40 1014.9
20260905233002 93 360 2.6 9.6 0.00 0.00 0.00 38 1014.7
20260905231504 94 360 4.3 10.4 0.00 0.00 0.00 37 1014.6
20260905230006 96 360 5.2 10.4 0.00 0.00 0.00 36 1014.5
20260905224510 96 226 4.3 11.3 0.00 0.00 0.00 35 1014.3
20260905223014 97 168 5.2 10.4 0.00 0.00 0.00 35 1014.2
20260905221502 97 243 5.2 10.4 0.00 0.00 0.00 38 1014.1
20260905220003 96 162 5.2 9.6 0.00 0.00 0.00 37 1014.1
20260905214507 96 153 4.3 12.2 0.00 0.00 0.00 39 1014.1
20260905213014 96 150 4.3 10.4 0.00 0.00 0.00 40 1014.2
20260905211533 96 247 5.2 8.7 0.00 0.00 0.00 41 1014.5
20260905210004 95 140 4.3 10.4 0.00 0.00 0.00 41 1014.8
20260905204507 94 212 3.5 9.6 0.00 0.00 0.00 43 1015.0
20260905203012 93 186 3.5 12.2 0.00 0.00 0.00 46 1015.4
20260905201518 92 227 3.5 7.8 0.00 0.00 0.00 47 1015.6
20260905200030 92 210 2.6 7.0 0.00 0.00 0.00 49 1015.9
20260905194505 92 167 2.6 7.8 0.00 0.00 0.00 47 1016.0
20260905193008 91 184 3.5 7.0 0.00 0.00 0.00 49 1016.2
20260905191516 90 165 2.6 8.7 0.00 0.00 0.00 51 1016.4
20260905190023 89 135 1.7 5.2 0.00 0.00 0.00 54 1016.4
20260905184535 87 169 2.6 5.2 0.00 0.00 0.00 57 1016.7
20260905183006 86 212 1.7 4.3 0.00 0.00 0.00 58 1016.9
20260905181515 85 165 0.9 3.5 0.00 0.00 0.00 62 1017.0
20260905180022 84 223 1.7 4.3 0.00 0.00 0.00 62 1017.1
20260905174529 83 173 1.7 6.1 0.00 0.00 0.00 62 1017.2
20260905173028 83 168 1.7 7.0 0.00 0.00 0.00 62 1017.2
20260905171515 83 207 1.7 5.2 0.00 0.00 0.00 61 1017.2
20260905170018 83 255 2.6 5.2 0.00 0.00 0.00 60 1017.2
20260905164525 84 211 1.7 9.6 0.00 0.00 0.00 60 1017.1
20260905163033 85 360 3.5 7.8 0.00 0.00 0.00 56 1017.0
20260905161513 86 203 4.3 8.7 0.00 0.00 0.00 56 1016.7
20260905160017 85 194 2.6 8.7 0.00 0.00 0.00 60 1016.7
20260905154523 83 134 3.5 6.1 0.00 0.00 0.00 61 1016.6
20260905153025 82 248 2.6 5.2 0.00 0.00 0.00 63 1016.7
20260905151533 79 161 0.9 5.2 0.00 0.00 0.00 68 1016.8
20260905150013 77 161 0.0 2.6 0.00 0.00 0.00 70 1016.7
20260905144504 75 185 0.0 5.2 0.00 0.00 0.00 72 1016.5
20260905143006 74 182 0.0 0.9 0.00 0.00 0.00 73 1016.6
20260905141508 73 116 0.0 0.0 0.00 0.00 0.00 75 1016.4
20260905140009 72 172 0.0 0.0 0.00 0.00 0.00 75 1016.2
20260905134508 72 172 0.0 0.0 0.00 0.00 0.00 74 1016.0
20260905133004 72 172 0.0 1.7 0.00 0.00 0.00 73 1015.8
20260905131506 71 180 0.0 0.0 0.00 0.00 0.00 75 1015.7
20260905130008 69 171 0.0 1.7 0.00 0.00 0.00 76 1015.6
20260905124510 69 150 0.0 3.5 0.00 0.00 0.00 76 1015.3
20260905123017 69 159 0.0 0.0 0.00 0.00 0.00 74 1015.1
20260905121501 70 167 0.0 2.6 0.00 0.00 0.00 72 1015.1
20260905120007 71 143 0.0 0.0 0.00 0.00 0.00 70 1014.8
20260905114511 72 171 0.0 1.7 0.00 0.00 0.00 68 1015.0
20260905113012 73 171 0.9 2.6 0.00 0.00 0.00 66 1015.1
20260905111517 74 143 0.9 7.0 0.00 0.00 0.00 64 1015.0
20260905110007 75 171 3.5 7.8 0.00 0.00 0.00 63 1015.0
20260905104513 75 155 2.6 7.8 0.00 0.00 0.00 61 1014.6
20260905103016 76 246 0.9 5.2 0.00 0.00 0.00 59 1014.1
20260905101527 77 244 0.9 3.5 0.00 0.00 0.00 57 1014.1